Location: Castillon
(43.1358°N, 0.8654°E)
Time: 19:57:37
(UTC+00:00)

SKYMED 2 - Pass Details

Date: 24 January 2021
Orbit: 621 x 623 km, 97.9° (Epoch: 28 February)

Event Time Altitude Azimuth Distance (km) Brightness Sun altitude
Rises 18:21:47 0° 9° (N) 2,913 6.8 -15.2°
Reaches altitude 10° 18:24:00 10° 5° (N) 2,001 6.0 -15.6°
Maximum altitude 18:28:17 60° 286° (WNW) 715 4.1 -16.3°
Drops below altitude 10° 18:32:32 10° 207° (SSW) 1,985 6.7 -17.1°
Sets 18:34:44 0° 204° (SSW) 2,886 7.5 -17.5°
